Location: Palomar Mountain Lodge
(33.3110°N, 116.8495°W)
Time: 00:50:14
(UTC-07:00)

Genesis I - Pass Details

Date: 12 July 2018
Orbit: 481 x 547 km, 64.5° (Epoch: 18 July)

Event Time Altitude Azimuth Distance (km) Brightness Sun altitude
Rises 21:56:10 0° 331° (NNW) 2,708 8.3 -20.6°
Reaches altitude 10° 21:58:23 10° 331° (NNW) 1,808 7.0 -20.9°
Maximum altitude 22:02:28 88° 247° (WSW) 541 3.1 -21.5°
Enters shadow 22:02:46 76° 158° (SSE) 557 3.1 -21.5°
